Weather History for KMOT - January, 2013

Change the Weather History Date:

Tuesday, January 1, 2013

  Actual Average Record
Temperature  
Mean Temperature 10 °F 12 °F  
Max Temperature 29 °F 21 °F 50 °F (1998)
Min Temperature -9 °F 4 °F -31 °F (1919)
Degree Days  
Heating Degree Days 55 53  
Month to date heating degree days 55 53  
Since 1 July heating degree days 3800 3648  
Moisture  
Dew Point 14 °F    
Average Humidity 84    
Maximum Humidity 96    
Minimum Humidity 71    
Precipitation  
Precipitation T in 0.02 in 0.49 in (1960)
Month to date precipitation T 0.02  
Year to date precipitation T 0.02  
Sea Level Pressure  
Sea Level Pressure 29.97 in    
Wind  
Wind Speed 15 mph (SW)    
Max Wind Speed 30 mph    
Max Gust Speed 37 mph    
Visibility 5 miles    
Events Snow    
T = Trace of Precipitation, MM = Missing Value Source: NWS Daily Summary

Daily Weather History Graph

Daily Weather History Graph

Search for Another Location

Airport or City:

Trip Planner

Search our weather history database for the weather conditions in past years. The results will help you decide how hot, cold, wet, or windy it might be!

Date:

Astronomy

Jan. 01, 2013 Rise Set
Actual Time 8:36 AM CST 5:01 PM CST
Civil Twilight 7:59 AM CST 5:38 PM CST
Nautical Twilight 7:19 AM CST 6:18 PM CST
Astronomical Twilight 6:42 AM CST 6:55 PM CST
Moon 9:58 PM CST (1/1) 10:28 AM CST (1/1)
Length of Visible Light 9h 38m
Length of Day
8h 25m
Waning Gibbous, 83% of the Moon is Illuminated
Jan 1
Waning Gibbous
Jan 4
Last Quarter
Jan 11
New
Jan 18
First Quarter
Jan 26
Full

Hourly Weather History & Observations

Time (CST) Temp. Windchill Dew Point Humidity Pressure Visibility Wind Dir Wind Speed Gust Speed Precip Events Conditions
12:54 AM -2.9 °F - -7.1 °F 82% 30.23 in 8.0 mi Calm Calm - N/A   Clear
1:54 AM 3.0 °F -13.3 °F -0.0 °F 87% 30.20 in 8.0 mi SW 11.5 mph - N/A   Clear
2:54 AM 8.1 °F -9.0 °F 3.9 °F 83% 30.19 in 9.0 mi SW 15.0 mph - N/A   Clear
3:46 AM 6.8 °F -8.6 °F 3.2 °F 85% 30.05 in 9.0 mi SW 11.5 mph - N/A   Scattered Clouds
3:54 AM 6.1 °F -9.5 °F 3.9 °F 91% 30.19 in 8.0 mi SW 11.5 mph - N/A   Mostly Cloudy
4:52 AM 6.8 °F -8.6 °F 3.2 °F 85% 30.03 in 7.0 mi SW 11.5 mph - N/A   Scattered Clouds
4:54 AM 6.1 °F -7.8 °F 3.9 °F 91% 30.17 in 7.0 mi SW 9.2 mph - N/A   Partly Cloudy
5:54 AM 7.0 °F -1.7 °F 3.0 °F 84% 30.15 in 3.0 mi SSW 4.6 mph - N/A   Clear
6:00 AM 6.8 °F -0.1 °F 3.2 °F 85% 30.01 in 2.5 mi SSW 3.5 mph - N/A   Scattered Clouds
6:07 AM 6.8 °F -2.0 °F 3.2 °F 85% 30.01 in 1.8 mi South 4.6 mph - N/A   Mostly Cloudy
6:34 AM 5.0 °F - 1.4 °F 85% 30.01 in 2.5 mi Calm Calm - N/A   Mostly Cloudy
6:39 AM 5.0 °F - 1.4 °F 85% 30.01 in 3.0 mi Calm Calm - N/A   Scattered Clouds
6:54 AM 7.0 °F -7.5 °F 3.9 °F 87% 30.14 in 3.0 mi SW 10.4 mph - N/A   Scattered Clouds
7:00 AM 8.6 °F -6.3 °F 6.8 °F 92% 30.00 in 1.8 mi SW 11.5 mph - N/A   Mostly Cloudy
7:49 AM 10.4 °F -6.0 °F 8.6 °F 92% 29.97 in 3.0 mi SSW 15.0 mph - N/A   Mostly Cloudy
7:54 AM 12.0 °F -4.5 °F 9.0 °F 88% 30.11 in 4.0 mi SW 16.1 mph - N/A   Mostly Cloudy
8:01 AM 12.2 °F -4.3 °F 8.6 °F 85% 29.97 in 5.0 mi SSW 16.1 mph - N/A   Scattered Clouds
8:26 AM 12.2 °F -1.8 °F 10.4 °F 92% 29.97 in 2.0 mi SW 11.5 mph - N/A   Mostly Cloudy
8:33 AM 12.2 °F -1.0 °F 10.4 °F 92% 29.97 in 1.0 mi SW 10.4 mph - N/A   Mist
8:40 AM 14.0 °F 2.0 °F 10.4 °F 86% 29.96 in 0.8 mi SW 9.2 mph - N/A   Mist
8:54 AM 14.0 °F -1.4 °F 12.0 °F 92% 30.09 in 0.8 mi SW 15.0 mph - N/A   Mist
9:33 AM 15.8 °F 0.9 °F 12.2 °F 86% 29.95 in 1.5 mi SW 15.0 mph - N/A   Overcast
9:39 AM 15.8 °F 0.3 °F 12.2 °F 86% 29.95 in 3.0 mi SW 16.1 mph - N/A   Mostly Cloudy
9:50 AM 17.6 °F 1.7 °F 14.0 °F 86% 29.94 in 4.0 mi SW 18.4 mph - N/A   Scattered Clouds
9:54 AM 17.1 °F 0.1 °F 14.0 °F 88% 30.06 in 4.0 mi SW 20.7 mph - N/A   Partly Cloudy
10:18 AM 17.6 °F 2.2 °F 15.8 °F 93% 29.94 in 1.8 mi SSW 17.3 mph - N/A   Scattered Clouds
10:30 AM 17.6 °F 1.7 °F 15.8 °F 93% 29.94 in 1.5 mi SW 18.4 mph - N/A   Mostly Cloudy
10:54 AM 18.0 °F 2.2 °F 15.1 °F 88% 30.06 in 1.2 mi SW 18.4 mph - N/A   Overcast
11:27 AM 17.6 °F 1.3 °F 15.8 °F 93% 29.93 in 2.0 mi SW 19.6 mph - N/A   Mostly Cloudy
11:37 AM 17.6 °F 0.1 °F 15.8 °F 93% 29.93 in 1.2 mi SW 23.0 mph - N/A   Mostly Cloudy
11:50 AM 17.6 °F 0.1 °F 15.8 °F 93% 29.93 in 3.0 mi SW 23.0 mph - N/A   Mostly Cloudy
11:54 AM 19.0 °F 2.4 °F 15.1 °F 85% 30.06 in 3.0 mi SW 21.9 mph - N/A   Scattered Clouds
12:54 PM 21.0 °F 7.1 °F 14.0 °F 74% 30.02 in 10.0 mi SW 16.1 mph - N/A   Clear
1:54 PM 21.0 °F 6.6 °F 14.0 °F 74% 29.98 in 10.0 mi SW 17.3 mph 24.2 mph N/A   Mostly Cloudy
2:54 PM 21.2 °F 7.8 °F 15.8 °F 80% 29.84 in 10.0 mi WSW 15.0 mph - N/A   Overcast
3:17 PM 23.0 °F 11.1 °F 15.8 °F 74% 29.84 in 10.0 mi WSW 12.7 mph - N/A   Overcast
3:54 PM 23.0 °F 10.6 °F 17.1 °F 78% 29.94 in 10.0 mi SW 13.8 mph - N/A   Overcast
4:24 PM 23.0 °F 11.1 °F 17.6 °F 80% 29.85 in 1.8 mi WSW 12.7 mph - 0.00 in Snow Light Snow
4:33 PM 24.8 °F 14.0 °F 19.4 °F 80% 29.85 in 1.0 mi WSW 11.5 mph - 0.00 in Snow Light Snow
4:52 PM 23.0 °F 11.1 °F 19.4 °F 86% 29.85 in 2.0 mi WSW 12.7 mph - 0.00 in Snow Light Snow
4:54 PM 23.0 °F 12.4 °F 19.9 °F 88% 29.96 in 2.5 mi WSW 10.4 mph - 0.00 in Snow Light Snow
5:02 PM 24.8 °F 14.0 °F 19.4 °F 80% 29.85 in 4.0 mi WSW 11.5 mph - 0.00 in Snow Light Snow
5:09 PM 24.8 °F 13.4 °F 19.4 °F 80% 29.85 in 1.8 mi WSW 12.7 mph - 0.00 in Snow Light Snow
5:23 PM 24.8 °F 14.0 °F 21.2 °F 86% 29.85 in 2.5 mi WSW 11.5 mph - 0.00 in Snow Light Snow
5:42 PM 24.8 °F 13.4 °F 21.2 °F 86% 29.85 in 1.8 mi WSW 12.7 mph - 0.00 in Snow Light Snow
5:50 PM 24.8 °F 14.0 °F 21.2 °F 86% 29.85 in 2.5 mi WSW 11.5 mph - 0.00 in Snow Light Snow
5:54 PM 25.0 °F 14.2 °F 21.9 °F 88% 29.95 in 3.0 mi WSW 11.5 mph - 0.00 in Snow Light Snow
6:46 PM 26.6 °F 15.2 °F 21.2 °F 80% 29.84 in 10.0 mi WSW 13.8 mph - 0.00 in   Overcast
6:54 PM 26.1 °F 14.0 °F 21.0 °F 81% 29.94 in 10.0 mi WSW 15.0 mph - 0.00 in   Overcast
7:54 PM 26.1 °F 13.6 °F 21.9 °F 84% 29.93 in 10.0 mi WSW 16.1 mph - N/A   Overcast
8:05 PM 26.6 °F 14.7 °F 23.0 °F 86% 29.83 in 10.0 mi WSW 15.0 mph - N/A   Overcast
8:54 PM 28.9 °F 16.5 °F 24.1 °F 82% 29.91 in 10.0 mi West 18.4 mph - N/A   Overcast
9:41 PM 28.4 °F 15.4 °F 24.8 °F 86% 29.82 in 10.0 mi West 19.6 mph - N/A   Overcast
9:54 PM 28.9 °F 16.5 °F 24.1 °F 82% 29.91 in 10.0 mi West 18.4 mph 27.6 mph N/A   Overcast
10:54 PM 28.0 °F 15.3 °F 23.0 °F 81% 29.91 in 10.0 mi West 18.4 mph - N/A   Overcast
11:18 PM 28.4 °F 15.4 °F 24.8 °F 86% 29.83 in 10.0 mi West 19.6 mph - N/A   Overcast
11:51 PM 28.4 °F 13.8 °F 24.8 °F 86% 29.83 in 3.0 mi West 25.3 mph 35.7 mph N/A   Overcast
11:54 PM 28.9 °F 15.1 °F 25.0 °F 85% 29.91 in 4.0 mi WNW 23.0 mph - N/A   Overcast